DELTA 1 DEB, 10201

Orbit data source: Space-Track

DELTA 1 DEB, 10201 is space debris in LEO originally from a launch on Thu, 14 Jul 1977 UTC launched from the Air Force Eastern Test Range (AFETR). Debris objects in space refer to the collection of defunct objects orbiting the Earth. Examples of debris include non-operational satellites, rocket bodies, and fragments generated from explosions, collisions, or faulty payload assembly.

Loading next visibility...
Identifier
10201, 1977-065AE
Orbit
LEO
Country
Flag of USUS
Related business
Manufacturer
Unknown
Mission
Spacecraft
Bus & Motor
Unknown
Mass
Unknown
Launch date (UTC)
1977-07-14 (48 years ago)
Launch vehicle
Unknown
Launch site
Air Force Eastern Test Range (AFETR)
Object type
Payload
Rocket body
Debris
Shape & HBR
Unknown shape, 0.2 m
Radar Cross Section
Medium (>0.1 m² and <1 m²)

Expand to show TLE details & history
Last TLE update: 23 hours ago

TLE from 23 hours ago
0 DELTA 1 DEB
1 10201U 77065AE  25305.00143507  .00002141  00000-0  39213-3 0  9993
2 10201  29.0869 152.0043 0668972 344.0893  13.9571 13.74005631377445
Epoch: 2025-11-01T00:02Z
TLE epoch observation values (Epoch: 2025-11-01T00:02:03.990Z)
Latitude
-0.00003°
Longitude
110.94983°
Altitude
507.849 km
Speed
7.854 km/s
True Right ascension
10h 08m 01s
True Declination
0° 00' 00"
Sunlit
Object was in daylight at epoch
Visualization orbit readout
Latitude
Unknown
Longitude
Unknown
Altitude
Unknown
Speed
Unknown
Apparent Right ascension
Unknown
Apparent Declination
Unknown
Sunlit
N/A
Visualization observer readout
Local Sidereal Time
19:01:18
Azimuth
Unknown
Elevation
Unknown
Doppler factor
Unknown
Orbital elements
Apogee altitude
1,481.967 km
Perigee altitude
496.27 km
Semi-major axis
7,367.255 km
Eccentricity
0.0669
Inclination
29.0869°
RAAN
152.0043°
Arg. of periapsis
344.0893°
True anomaly
15.96831°
Mean anomaly
13.9571°
Eccentric anomaly
14.94562°
Mean motion
3.43229 °/min
Orbital period
104.89 mins
BSTAR
0.00039213
Loading maneuver chart data...
Computing Atmospheric mass density...

Documentation

Showing up to 5 results
|